Wind_Speed
35 38 44 50 46 44 42 44 41 40 41 42 41 42 51 51 42 36 29 33 30 27 27 24 25 25 20 17 15 17 15 10 10 8 8 13 17 15 14 13 9 9 14
34 33 31 42 48 49 48 43 45 40 38 36 39 40 43 40 42 45 45 35 30 29 28 25 29 29 26 25 23 21 20 18 14 11 9 14 18 22 18 16 15 9 14
32 32 31 31 32 37 47 49 50 44 37 32 32 33 37 38 37 40 49 46 40 37 30 29 31 33 33 33 30 25 24 23 17 13 12 15 21 24 27 25 23 20 17
32 32 29 29 29 28 32 37 44 43 40 35 32 30 33 41 40 35 33 38 41 40 41 42 42 38 38 37 35 32 29 29 27 20 20 23 22 27 29 33 30 28 26
32 32 31 32 31 32 31 30 34 39 45 41 38 33 28 32 39 37 34 29 26 27 36 44 45 46 43 43 41 38 37 33 33 32 28 27 26 25 30 32 35 35 34
25 27 27 27 29 30 30 29 28 33 45 46 43 38 34 30 29 29 38 33 36 39 24 44 36 39 40 37 39 43 43 42 41 38 36 35 31 30 29 33 32 36 40
15 18 20 23 25 26 26 26 26 26 30 41 44 43 40 37 34 33 33 39 45 51 36 27 39 42 41 34 29 30 44 46 51 49 46 45 37 34 32 33 39 38 41
13 12 12 13 14 19 23 24 25 23 23 31 37 41 41 40 37 37 36 39 46 50 53 46 44 41 45 36 41 43 44 44 43 52 54 51 46 37 34 33 34 36 38
14 17 20 21 19 19 15 19 22 27 26 25 27 32 38 40 40 38 40 41 45 50 52 52 56 53 55 55 55 58 58 56 50 48 51 53 49 46 43 40 40 38 43
12 14 16 21 24 26 22 22 26 27 30 32 30 30 31 34 37 42 45 47 46 48 51 51 54 59 57 55 56 55 58 63 61 61 57 59 57 56 50 49 49 46 45
15 15 15 15 18 22 27 25 27 32 33 33 35 35 33 34 36 38 41 45 50 53 54 54 55 61 62 60 57 58 61 58 57 55 58 59 61 61 58 56 53 51 49
19 20 23 22 20 20 23 28 28 31 37 36 37 37 39 39 38 41 43 44 46 50 52 54 56 61 64 66 64 64 64 59 59 58 57 61 63 61 62 62 54 54 48
26 27 28 26 24 24 23 24 25 31 35 36 39 40 38 40 43 44 44 43 43 44 48 52 55 58 61 64 67 69 67 70 71 66 64 65 65 66 63 61 57 57 56
30 30 30 29 28 28 26 27 28 30 32 35 38 41 43 44 45 47 49 49 50 52 52 52 51 52 55 58 60 66 70 70 70 71 73 68 69 70 65 65 64 65 64
33 31 31 32 29 27 29 30 30 32 34 38 42 44 47 48 50 52 55 57 59 60 60 59 60 58 57 58 57 59 61 66 71 74 73 76 74 74 74 70 69 65 57
33 32 30 30 30 29 28 28 29 32 35 41 45 48 47 48 50 52 54 54 56 58 60 62 63 64 64 63 63 62 63 63 63 65 69 78 80 80 80 79 77 80 84
26 26 26 24 25 26 27 29 32 35 40 43 45 46 46 49 53 57 60 60 61 60 60 60 62 63 63 66 67 69 70 71 71 70 68 67 71 81 86 86 86 84 85
18 18 19 20 22 25 28 31 34 37 39 42 44 45 47 50 53 55 58 61 62 62 63 64 67 70 71 74 76 78 79 80 80 79 78 77 75 73 74 87 94 89 89
19 21 22 23 27 32 36 38 38 40 42 45 46 48 52 55 58 59 61 64 68 72 77 81 83 85 88 90 90 90 91 91 91 90 89 89 87 82 78 78 86 95 98
25 29 32 35 36 38 42 44 45 46 48 53 57 59 61 63 63 65 69 73 81 85 86 88 90 93 96 98 100 102 104 106 105 101 99 98 97 94 91 87 84 83 90
31 33 36 39 42 46 47 47 50 53 56 60 65 67 72 68 73 84 88 87 90 95 100 105 108 112 115 117 119 120 121 119 117 113 110 106 105 103 100 98 94 88 86
34 38 40 42 44 47 52 57 59 62 64 67 71 75 81 86 91 95 101 105 109 115 118 118 117 118 117 114 111 107 104 103 103 105 107 110 112 112 110 107 103 97 91
37 44 47 48 51 57 59 63 65 70 73 76 79 87 95 99 103 110 116 114 103 90 87 87 87 86 84 83 82 82 81 84 85 86 86 86 89 95 101 107 109 106 102
47 52 57 59 63 64 68 71 74 74 78 86 95 100 105 109 118 106 89 81 75 71 68 68 67 67 65 64 65 66 67 69 71 71 72 74 76 78 80 86 96 102 107
52 57 63 67 69 75 79 79 78 83 91 99 105 109 118 120 95 83 72 66 62 61 59 58 57 58 58 57 56 57 56 58 60 62 65 65 67 68 71 77 82 89 101
59 64 59 67 79 82 84 80 87 96 101 104 112 121 105 90 79 72 68 64 60 57 53 52 50 52 52 52 53 53 54 54 54 55 58 60 61 62 65 69 77 82 89
Wind_Direction
254 256 254 244 246 248 251 248 253 253 257 257 248 245 241 244 239 248 241 239 247 249 253 263 263 268 265 269 278 278 294 299 305 265 231 219 202 204 197 188 141 142 139
254 253 256 250 248 249 249 255 258 255 252 256 252 247 243 245 247 251 248 240 241 250 248 259 259 263 266 269 268 274 285 291 283 278 250 243 226 221 218 209 208 171 168
256 254 250 247 248 249 248 250 253 252 245 250 247 243 241 241 246 246 248 243 243 242 247 258 261 262 263 268 268 271 274 276 273 274 247 237 246 234 230 229 223 227 210
254 253 251 251 249 253 253 253 249 243 239 237 243 244 241 240 242 243 242 247 248 251 254 261 260 258 259 261 261 268 267 267 265 259 260 261 258 252 241 236 233 235 231
253 254 251 250 249 248 251 256 247 243 239 238 239 243 246 244 243 248 238 240 253 269 272 262 257 256 256 255 258 264 268 264 259 259 257 254 265 256 253 251 245 246 243
251 252 254 257 255 254 254 253 255 243 238 240 240 239 244 244 244 245 234 229 211 249 259 244 253 255 257 255 257 260 261 263 261 260 259 255 257 255 249 251 254 254 256
247 243 248 252 256 257 257 252 247 244 242 237 237 239 248 249 246 245 239 230 226 236 243 249 242 250 249 249 241 249 256 258 259 261 259 258 258 256 253 252 250 259 257
240 228 242 254 266 260 252 245 241 241 237 233 236 242 244 247 246 246 248 240 232 237 242 249 241 240 244 243 243 244 250 255 256 257 258 257 254 253 247 254 257 261 261
252 250 248 251 257 259 256 254 249 246 245 240 246 240 239 240 243 243 248 246 242 243 240 238 237 242 242 243 247 251 252 249 249 254 257 258 255 252 255 254 257 257 263
268 271 269 267 260 255 252 251 250 249 247 246 244 249 246 245 245 245 244 247 248 247 248 244 239 243 246 247 250 252 251 253 255 253 252 248 251 253 252 254 258 257 264
271 275 281 283 274 263 254 257 255 253 250 247 245 245 245 245 244 244 244 246 252 255 253 250 252 249 250 250 249 250 252 251 253 251 249 248 247 248 254 255 253 251 256
278 284 282 280 276 275 266 261 258 254 252 253 254 253 251 253 255 254 253 254 254 256 258 257 254 254 256 257 258 255 253 253 252 253 250 248 245 245 248 248 249 247 250
275 282 280 277 273 270 270 268 267 266 263 263 258 259 258 259 258 258 260 257 259 262 263 261 262 261 258 257 257 256 255 254 252 252 251 248 247 246 245 243 240 242 245
271 271 273 272 273 265 269 269 269 266 265 266 267 269 269 264 264 266 262 264 264 263 262 264 264 264 262 261 260 257 255 253 252 250 251 249 245 244 240 239 241 243 244
272 269 269 269 270 276 281 275 273 274 270 270 271 272 275 271 267 267 267 268 270 269 269 268 268 267 267 264 263 262 257 255 252 249 246 246 246 245 243 240 239 240 239
269 266 266 268 271 280 283 281 284 286 284 283 284 283 282 276 271 268 267 268 269 270 270 269 269 268 269 265 265 264 263 260 258 253 251 248 242 242 243 242 239 240 242
267 264 269 268 276 285 287 291 294 294 293 292 290 286 285 283 280 279 277 275 273 272 270 268 268 267 266 265 265 266 267 268 266 265 259 256 253 246 239 239 243 242 243
278 274 276 282 290 291 295 298 300 299 297 294 294 295 293 291 287 285 283 279 275 273 272 270 269 268 269 269 268 267 266 265 265 264 262 259 255 250 249 242 238 237 238
290 288 288 289 292 295 298 301 302 302 300 299 300 300 300 298 296 293 290 287 284 280 278 276 274 273 273 271 270 269 269 268 266 266 264 261 258 253 250 246 243 240 237
297 298 298 299 298 295 298 298 298 298 301 302 302 302 301 298 293 290 291 290 288 287 286 283 279 277 276 275 274 274 272 270 269 263 259 259 258 255 251 248 244 244 243
300 298 297 297 297 298 299 299 300 301 302 302 304 302 301 298 297 297 296 292 288 285 284 282 279 278 276 274 272 272 272 271 267 263 259 256 253 252 250 248 245 242 240
300 301 302 303 302 302 303 304 305 304 303 303 304 306 304 300 297 294 293 292 289 286 284 281 278 276 275 274 273 272 270 268 265 262 259 255 252 250 247 246 243 240 237
307 307 306 306 307 307 307 307 308 310 311 309 307 304 301 300 300 298 296 294 292 289 285 281 279 278 276 273 272 271 268 266 265 262 260 256 253 251 248 244 241 238 234
307 309 310 310 308 310 311 312 312 311 311 309 305 304 303 305 306 308 304 299 295 292 289 286 282 279 277 274 272 270 268 266 264 262 260 257 253 249 246 243 239 234 230
307 309 307 314 315 311 313 315 314 313 310 308 309 310 311 312 310 309 306 304 301 297 293 288 285 283 282 279 276 274 271 266 264 262 260 257 253 248 245 240 238 234 229
308 309 312 304 311 313 313 313 312 310 310 312 314 317 318 317 314 313 310 306 304 300 295 290 286 283 281 280 279 276 274 271 266 261 260 256 254 249 243 239 235 233 231
Height
10934 10935 10937 10939 10942 10944 10946 10949 10952 10955 10955 10954 10957 10959 10960 10963 10968 10971 10974 10978 10982 10985 10988 10988 10987 10989 10990 10990 10993 10995 10995 10993 10992 10993 10992 10991 10995 10996 10995 10996 10995 10994 10994
10923 10927 10928 10930 10933 10935 10937 10939 10941 10945 10948 10948 10949 10951 10952 10955 10957 10961 10968 10974 10978 10980 10982 10983 10983 10984 10986 10987 10989 10990 10993 10991 10991 10988 10991 10990 10991 10992 10992 10994 10995 10995 10996
10914 10916 10920 10922 10925 10926 10927 10929 10931 10936 10940 10943 10945 10946 10947 10949 10951 10954 10960 10968 10972 10975 10977 10978 10978 10978 10978 10981 10983 10985 10987 10988 10987 10986 10986 10988 10987 10988 10988 10990 10992 10994 10995
10904 10907 10912 10915 10916 10918 10918 10919 10921 10926 10932 10936 10939 10940 10941 10942 10944 10949 10955 10960 10965 10970 10972 10972 10971 10971 10972 10973 10975 10977 10979 10981 10982 10982 10982 10982 10984 10982 10983 10984 10985 10988 10990
10897 10900 10903 10905 10908 10910 10910 10912 10914 10918 10923 10926 10930 10934 10935 10936 10938 10942 10950 10956 10961 10965 10960 10960 10959 10961 10964 10966 10969 10971 10972 10973 10974 10975 10976 10975 10974 10976 10977 10979 10978 10981 10983
10891 10893 10895 10897 10899 10901 10903 10905 10905 10909 10913 10917 10921 10925 10927 10929 10930 10932 10938 10943 10944 10942 10942 10945 10946 10947 10952 10956 10960 10963 10962 10963 10963 10965 10966 10967 10967 10968 10969 10970 10972 10973 10976
10886 10887 10889 10891 10892 10893 10895 10897 10898 10899 10901 10905 10910 10914 10918 10920 10921 10923 10926 10929 10931 10931 10933 10934 10935 10937 10942 10945 10948 10944 10947 10950 10952 10954 10955 10956 10958 10959 10962 10961 10963 10965 10965
10884 10885 10886 10886 10886 10887 10888 10890 10891 10893 10894 10896 10899 10903 10906 10910 10912 10913 10914 10915 10918 10918 10921 10924 10924 10926 10929 10931 10934 10935 10935 10936 10938 10940 10941 10942 10945 10949 10951 10954 10956 10955 10955
10882 10882 10882 10882 10882 10883 10883 10884 10885 10886 10888 10889 10891 10893 10895 10898 10900 10904 10903 10902 10903 10904 10908 10910 10911 10913 10916 10919 10918 10918 10919 10921 10925 10927 10928 10928 10931 10935 10940 10943 10942 10943 10942
10879 10878 10878 10877 10877 10878 10878 10878 10879 10880 10881 10882 10883 10884 10886 10889 10890 10888 10888 10888 10890 10891 10892 10896 10899 10898 10899 10902 10904 10903 10904 10907 10909 10911 10912 10913 10915 10918 10923 10926 10928 10931 10929
10875 10874 10873 10872 10871 10871 10871 10871 10872 10872 10873 10873 10873 10875 10879 10878 10877 10877 10877 10877 10875 10875 10877 10880 10881 10880 10882 10886 10888 10888 10889 10891 10890 10893 10895 10897 10899 10902 10905 10909 10912 10914 10915
10869 10868 10868 10867 10866 10865 10864 10864 10864 10864 10865 10864 10864 10866 10868 10867 10865 10864 10864 10864 10864 10862 10861 10862 10864 10865 10865 10866 10868 10871 10872 10873 10873 10875 10877 10878 10881 10883 10887 10893 10896 10897 10898
10862 10862 10861 10860 10859 10858 10857 10856 10855 10854 10854 10853 10852 10852 10855 10855 10852 10852 10851 10851 10850 10850 10848 10846 10846 10846 10847 10847 10848 10849 10852 10853 10855 10857 10857 10858 10862 10864 10869 10874 10876 10879 10882
10853 10852 10852 10852 10851 10851 10849 10847 10846 10845 10844 10843 10842 10840 10841 10842 10840 10837 10836 10835 10834 10833 10831 10830 10829 10827 10826 10825 10825 10827 10828 10829 10831 10833 10837 10840 10842 10844 10851 10853 10858 10859 10864
10842 10842 10841 10841 10842 10841 10839 10837 10835 10834 10834 10831 10829 10827 10826 10826 10826 10823 10820 10819 10817 10815 10813 10813 10810 10809 10807 10806 10806 10804 10805 10804 10806 10808 10812 10815 10819 10823 10828 10832 10836 10839 10843
10831 10830 10831 10831 10831 10830 10829 10827 10825 10824 10822 10818 10815 10812 10810 10807 10805 10805 10804 10802 10799 10796 10793 10790 10788 10787 10785 10783 10782 10782 10781 10782 10781 10783 10785 10787 10790 10795 10801 10806 10811 10814 10820
10820 10821 10821 10821 10822 10821 10820 10818 10816 10814 10810 10805 10801 10798 10796 10792 10788 10785 10783 10781 10780 10776 10772 10769 10766 10765 10763 10762 10761 10759 10757 10757 10758 10759 10760 10761 10760 10765 10772 10779 10785 10791 10797
10813 10813 10813 10813 10813 10812 10810 10807 10805 10802 10798 10792 10788 10785 10781 10776 10772 10768 10763 10759 10757 10754 10749 10746 10744 10740 10739 10737 10732 10729 10729 10729 10729 10730 10731 10733 10735 10739 10741 10748 10754 10763 10770
10808 10808 10806 10804 10803 10801 10798 10795 10793 10789 10784 10778 10773 10769 10765 10759 10752 10747 10741 10735 10731 10728 10723 10718 10716 10711 10706 10701 10699 10698 10696 10694 10695 10696 10699 10701 10705 10709 10714 10717 10722 10727 10734
10802 10799 10797 10794 10791 10788 10785 10781 10778 10774 10770 10762 10757 10751 10745 10739 10731 10724 10717 10710 10703 10696 10689 10681 10675 10671 10668 10662 10658 10654 10651 10650 10653 10655 10658 10662 10665 10671 10678 10685 10692 10701 10708
10794 10790 10786 10783 10780 10776 10772 10767 10764 10760 10754 10748 10738 10730 10725 10716 10704 10696 10686 10678 10668 10659 10649 10640 10631 10623 10618 10613 10609 10604 10600 10598 10598 10601 10609 10616 10620 10627 10636 10646 10656 10666 10673
10782 10778 10775 10772 10767 10763 10759 10752 10746 10740 10733 10726 10718 10707 10694 10686 10676 10666 10651 10639 10627 10612 10599 10587 10578 10571 10563 10557 10552 10548 10544 10542 10543 10545 10552 10561 10568 10575 10586 10600 10613 10628 10639
10772 10767 10762 10759 10753 10746 10740 10734 10727 10717 10707 10699 10689 10677 10665 10652 10637 10620 10604 10583 10567 10553 10545 10536 10528 10523 10519 10515 10511 10507 10504 10502 10502 10503 10507 10513 10519 10526 10536 10549 10565 10583 10598
10759 10753 10746 10740 10735 10729 10720 10712 10705 10695 10685 10672 10660 10646 10629 10611 10592 10567 10552 10537 10527 10516 10508 10500 10493 10489 10485 10483 10479 10476 10474 10472 10470 10471 10473 10478 10484 10491 10498 10506 10517 10534 10551
10745 10739 10733 10723 10714 10708 10699 10690 10680 10668 10656 10641 10625 10608 10587 10568 10547 10531 10517 10505 10496 10488 10481 10474 10468 10462 10458 10456 10453 10449 10447 10447 10446 10444 10445 10449 10454 10461 10468 10475 10482 10494 10509
10731 10724 10716 10712 10702 10691 10680 10669 10656 10642 10627 10612 10594 10576 10551 10531 10514 10500 10490 10479 10472 10464 10458 10452 10449 10442 10438 10435 10430 10427 10425 10423 10423 10423 10422 10424 10428 10434 10442 10448 10457 10466 10474